Regional Weather Roundup
Issued by NWS

Home | Current Version | Previous Version | Text Only | Print | Product List | Glossary Off
Versions: 1 2 3 4 5 6 7 8 9 10 11 12 13 14 15 16 17 18 19 20 21 22 23 24 25 26 27 28 29 30 31 32 33 34 35 36 37 38 39 40 41 42 43 44 45 46 47 48 49 50

180
ASUS43 KDTX 200510
RWRMI
MICHIGAN HOURLY REGIONAL WEATHER ROUNDUP
NATIONAL WEATHER SERVICE DETROIT/PONTIAC MI
ISSUED BY NATIONAL WEATHER SERVICE GRAND RAPIDS MI
1200 AM EST MON FEB 20 2017

NOTE: "FAIR" INDICATES FEW OR NO CLOUDS BELOW 12,000 FEET WITH NO
SIGNIFICANT WEATHER AND/OR OBSTRUCTION TO VISIBILITY.

MIZ047>049-052>055-059>063-066>070-074>076-081>083-200600-
SOUTHEAST LOWER MICHIGAN

CITY           SKY/WX    TMP DP  RH WIND       PRES   REMARKS
ADRIAN         CLEAR     37  30  75 CALM      30.16R
ALMA           CLOUDY    32  29  88 CALM      30.17R
ANN ARBOR      CLEAR     40  31  70 NE3       30.17R
BAD AXE        PTCLDY    28  25  90 CALM      30.18S
DETROIT CITY   CLOUDY    39  31  72 NE5       30.18R
DETROIT        PTCLDY    42  31  64 NE7       30.18R
FLINT          CLOUDY    36  29  75 E7        30.17S WCI  30
GROSSE ILE     CLEAR     39  32  76 NE6       30.16R WCI  35
HILLSDALE      CLEAR     37  28  70 CALM      30.15R
HOWELL         CLEAR     38  31  74 CALM      30.15S

CITY           SKY/WX    TMP DP  RH WIND       PRES   REMARKS
JACKSON        CLEAR     39  29  67 CALM      30.15R
LANSING        CLEAR     37  28  70 CALM      30.16R
MASON          CLEAR     35  32  87 CALM      30.15S
MONROE         CLEAR     41  35  79 CALM      30.16R
MT. CLEMENS    PTCLDY    34  30  85 N6        30.16R WCI  29
PONTIAC        CLOUDY    37  28  70 E5        30.16R WCI  33
PORT HOPE        N/A     31  28  89 CALM      30.17R
PORT HURON     CLEAR     28  27  93 CALM      30.19R
TRI CITIES     PTCLDY    35  31  85 E8        30.18R WCI  29
YPSILANTI      CLEAR     40  32  73 NE6       30.17R
$$
MIZ043>046-050>051-056>058-064>065-071>073-077>080-200600-
SOUTHWEST LOWER MICHIGAN

CITY           SKY/WX    TMP DP  RH WIND       PRES   REMARKS
BATTLE CREEK   CLOUDY    37  28  70 CALM      30.16R
BENTON HARBOR  CLOUDY    36  29  75 CALM      30.14R
BIG RAPIDS     PTCLDY    32  27  83 CALM      30.17R
COLDWATER      CLOUDY    36  32  87 CALM      30.15S
HOLLAND        PTCLDY    35  30  82 E3        30.14S
GRAND RAPIDS   CLOUDY    36  27  69 E3        30.15R
KALAMAZOO      PTCLDY    38  25  59 CALM      30.15S
MARSHALL       CLOUDY    35  29  79 CALM      30.15S
MOUNT PLEASANT CLOUDY    36  29  76 CALM      30.17R
MUSKEGON       CLOUDY    36  29  75 E3        30.15R
STURGIS        CLOUDY    39  29  66 CALM      30.15R
$$
MIZ016>042-200600-
NORTHERN LOWER MICHIGAN

CITY           SKY/WX    TMP DP  RH WIND       PRES   REMARKS
ALPENA         PTCLDY    29  27  92 CALM      30.18S
BEAVER ISLAND  PTCLDY    31  29  92 CALM      30.19R
BELLAIRE       CLOUDY    28  27  96 CALM      30.18R
CADILLAC       CLOUDY    32  28  84 CALM      30.15R
CHARLEVOIX     CLEAR     29  28  93 CALM      30.21R
GAYLORD        CLEAR     30  24  78 CALM      30.14S
HOUGHTON LAKE  CLOUDY    29  26  89 CALM      30.16R
MANISTEE       PTCLDY    33  29  85 E7        30.15R WCI  27
OSCODA         CLEAR     28  25  87 CALM      30.17S
PELLSTON       CLOUDY    27  23  85 CALM      30.18R
TRAVERSE CITY  PTCLDY    31  28  89 CALM      30.17R
LUDINGTON      PTCLDY    30  28  92 E3        30.14R
$$
MIZ007>008-015-200600-
EASTERN UPPER MICHIGAN

CITY           SKY/WX    TMP DP  RH WIND       PRES   REMARKS
KINROSS        CLEAR     29  28  96 N3        30.18R
MACKINAC ISLAN PTCLDY    32  28  85 NE9       30.17S WCI  24
NEWBERRY       CLOUDY    29  28  96 CALM      30.18R
S. S. MARIE    CLEAR     29  26  89 CALM      30.18R
$$
MIZ004>006-011>014-085-200600-
CENTRAL UPPER MICHIGAN

CITY           SKY/WX    TMP DP  RH WIND       PRES   REMARKS
MANISTIQUE     PTCLDY    29  28  98 CALM      30.18R
ESCANABA       PTCLDY    29  26  89 CALM      30.17R
MENOMINEE      PTCLDY    32  29  88 CALM      30.15S
SAWYER-GWINN   CLOUDY    34  28  80 SE5       30.14R WCI  30
$$
MIZ001>003-009>011-084-200600-
WESTERN UPPER MICHIGAN

CITY           SKY/WX    TMP DP  RH WIND       PRES   REMARKS
IRON MOUNTAIN  CLOUDY    34  27  75 SE3       30.11F
HOUGHTON       PTCLDY    35  28  75 E12       30.09F WCI  27
COPPER HARBOR    N/A     35  31  85 VRB3      30.12F
IRONWOOD       CLOUDY    48  29  47 SE8       30.00S
$$

ABBREVIATIONS USED IN REMARKS
   TC - TEMPERATURE IN CELSIUS
  WCI - WIND CHILL INDEX
   HX - HEAT INDEX
  VSB - VISIBILITY





USA.gov is the U.S. government's official web portal to all federal, state and local government web resources and services.